[[{"header":{"parameterUnit":"m.s-1","parameterCategory":2,"la1":30.2991,"la2":30.254,"lo1":-89.0895,"lo2":-89.0444,"dy":0.0017,"dx":0.0017,"nx":28,"ny":28,"refTime":"2024-02-23T09:00:00:Z","depth":"0","parameterNumber":2,"parameterNumberName":"U-component_of_CURRENTS"},"data":[0,0,0,0,0,0,0,0,0,0,0,0,0,0,0,0,0,0,0,0,0,0,0,0,0,0,0,0,0,0,0,0,0,0,0,0,0,0,0,0,0,0,0,0,0,0,0,0,0,0,0,0,0,0,0,0,0,0,-0.2113,-0.2114,0,-0.2158,-0.2158,-0.2158,-0.2158,-0.2158,-0.2157,-0.2157,-0.2226,-0.2229,-0.2231,0,0,0,0,0,0,0,0,0,0,0,0,0,-0.2045,-0.2046,-0.2113,-0.2114,-0.2115,-0.2158,-0.2158,-0.2159,-0.2158,-0.2158,-0.2157,-0.2157,-0.2226,-0.2228,-0.2231,0,0,0,0,0,0,0,0,0,0,0,0,0,-0.2079,-0.2046,-0.2113,-0.2121,-0.2122,-0.2157,-0.2158,-0.2159,-0.2159,-0.2158,-0.2157,-0.2157,-0.2225,-0.2228,-0.2231,-0.2267,0,0,-0.2242,-0.2243,0,0,0,0,0,0,0,0,-0.2077,-0.2081,-0.2119,-0.212,-0.2122,-0.2153,-0.2159,-0.2196,-0.2159,-0.2143,-0.2157,-0.2156,-0.2205,-0.221,-0.2218,-0.227,-0.2273,-0.2242,-0.2244,-0.2246,-0.2247,0,0,0,0,0,0,0,-0.2075,-0.208,-0.213,-0.212,-0.2121,-0.2127,-0.2131,-0.2166,-0.2177,-0.2145,-0.2145,-0.2152,-0.2206,-0.2215,-0.222,-0.2274,-0.2242,-0.2245,-0.2247,-0.2249,-0.2348,-0.2348,0,0,0,0,0,0,-0.2072,-0.2078,-0.2128,-0.2131,-0.2099,-0.2129,-0.2133,-0.2143,-0.2176,-0.2181,-0.2153,-0.2152,-0.2209,-0.2216,-0.2222,-0.2226,-0.2246,-0.2249,-0.2251,-0.2347,-0.2348,-0.2349,0,0,0,0,0,0,-0.207,-0.2076,-0.2127,-0.2106,-0.2113,-0.2131,-0.2141,-0.2144,-0.2152,-0.2182,-0.2187,-0.2158,-0.2209,-0.2218,-0.2249,-0.223,-0.225,-0.2254,-0.2346,-0.2347,-0.2348,-0.2259,0,0,0,0,0,0,-0.2068,-0.2075,-0.2077,-0.2106,-0.2114,-0.2145,-0.2142,-0.2145,-0.2158,-0.2157,-0.2189,-0.2194,-0.2209,-0.2244,-0.2252,-0.2235,-0.2256,-0.2346,-0.2347,-0.2348,-0.2261,-0.2257,-0.2253,0,0,0,0,0,-0.2066,-0.206,-0.2077,-0.2083,-0.2117,-0.2146,-0.215,-0.216,-0.2159,-0.2164,-0.2182,-0.2193,-0.2257,-0.2247,-0.2257,-0.224,-0.2345,-0.2347,-0.2348,-0.2263,-0.2258,-0.2253,0,0,0,0,0,0,-0.2018,-0.2061,-0.2079,-0.2084,-0.2117,-0.2146,-0.2142,-0.2162,-0.2181,-0.2176,-0.2204,-0.2211,-0.2226,-0.2261,-0.225,-0.2277,-0.2302,-0.2306,-0.2235,-0.223,-0.2226,-0.2215,-0.2259,0,0,0,0,0,-0.2015,-0.2022,-0.2072,-0.2071,-0.2088,-0.212,-0.2131,-0.2147,-0.217,-0.2177,-0.2201,-0.2227,-0.2242,-0.2257,-0.2281,-0.2306,-0.2318,-0.2305,-0.23,-0.2296,-0.2298,-0.2308,-0.2304,-0.2353,-0.2353,-0.2353,0,0,-0.1988,-0.2016,-0.2016,-0.2063,-0.2081,-0.2099,-0.2123,-0.2139,-0.2147,-0.2184,-0.2192,-0.2212,-0.2246,-0.2256,-0.2267,-0.2282,-0.2284,-0.2298,-0.2294,-0.2298,-0.2309,-0.2304,-0.2299,-0.2354,-0.2354,-0.2353,0,0,-0.1947,-0.1973,-0.1974,-0.2006,-0.2048,-0.2074,-0.2082,-0.2123,-0.2132,-0.216,-0.2172,-0.2183,-0.2229,-0.2233,-0.2243,-0.2242,-0.2257,-0.2257,-0.2228,-0.2237,-0.2232,-0.2228,-0.2203,-0.2198,-0.2259,-0.2258,-0.2258,0,-0.1915,-0.1933,-0.1976,-0.1993,-0.2011,-0.2062,-0.2072,-0.2091,-0.2136,-0.2147,-0.2153,-0.2194,-0.2211,-0.2214,-0.2202,-0.2226,-0.2232,-0.2233,-0.2227,-0.2224,-0.2221,-0.2197,-0.2193,-0.2254,-0.2255,-0.2255,-0.2255,0,-0.1887,-0.1905,-0.1903,-0.1946,-0.1972,-0.1985,-0.2033,-0.2056,-0.2078,-0.2101,-0.2117,-0.2138,-0.2165,-0.2164,-0.2177,-0.217,-0.2177,-0.221,-0.2227,-0.221,-0.2187,-0.2183,-0.2248,-0.225,-0.2251,-0.2252,0,0,-0.1812,-0.1873,-0.1874,-0.1898,-0.1952,-0.1976,-0.1989,-0.2027,-0.2043,-0.2068,-0.2082,-0.2082,-0.2101,-0.2117,-0.2133,-0.2134,-0.2094,-0.2162,-0.2164,-0.2115,-0.2092,-0.1988,-0.1974,-0.2129,-0.2129,-0.2128,-0.2069,0,-0.1779,-0.1804,-0.1841,-0.186,-0.1883,-0.1937,-0.1952,-0.1992,-0.2024,-0.2052,-0.2065,-0.2082,-0.2082,-0.2092,-0.2088,-0.2119,-0.2088,-0.2106,-0.2137,-0.2137,-0.2029,-0.1968,-0.1881,-0.1813,-0.2066,-0.2066,-0.2065,0,-0.1748,-0.1776,-0.179,-0.1849,-0.1862,-0.1876,-0.1929,-0.195,-0.1996,-0.2021,-0.2037,-0.2065,-0.2068,-0.2073,-0.2074,-0.2092,-0.2071,-0.2077,-0.2076,-0.2012,-0.2028,-0.1882,-0.1797,-0.176,-0.206,-0.2061,-0.2061,0,-0.1699,-0.1742,-0.1755,-0.1774,-0.1841,-0.1854,-0.1883,-0.1935,-0.1956,-0.2001,-0.2024,-0.2044,-0.2057,-0.2057,-0.2047,-0.2074,-0.2039,-0.2084,-0.1954,-0.1946,-0.1894,-0.1881,-0.1759,-0.2045,-0.2045,-0.2045,-0.2045,0,-0.1665,-0.1674,-0.1736,-0.1748,-0.1761,-0.1822,-0.1839,-0.1877,-0.1928,-0.1946,-0.1997,-0.2013,-0.2056,-0.2048,-0.2039,-0.1967,-0.2024,-0.1922,-0.1919,-0.1857,-0.1842,-0.1828,-0.1863,-0.2043,-0.2044,-0.2044,-0.2044,0,-0.1607,-0.1648,-0.1665,-0.1725,-0.174,-0.1747,-0.18,-0.1821,-0.1878,-0.1905,-0.1918,-0.1987,-0.1984,-0.1983,-0.1982,-0.1936,-0.1846,-0.1841,-0.1739,-0.1722,-0.1576,-0.1611,-0.1532,-0.1483,-0.1708,-0.1705,-0.1702,0,-0.1579,-0.1583,-0.1627,-0.1632,-0.1653,-0.1679,-0.1699,-0.1773,-0.1799,-0.188,-0.1889,-0.1909,-0.1904,-0.1846,-0.1786,-0.1711,-0.1716,-0.1557,-0.158,-0.1518,-0.1558,-0.1602,-0.1572,-0.1473,-0.1469,-0.1465,-0.1463,0,-0.1515,-0.1526,-0.154,-0.1545,-0.1564,-0.1583,-0.1621,-0.1641,-0.1729,-0.1763,-0.1802,-0.181,-0.1769,-0.1665,-0.1547,-0.1503,-0.151,-0.1481,-0.1462,-0.138,-0.1379,-0.1347,-0.155,-0.1432,-0.1435,-0.1437,-0.1439,-0.144,-0.1449,-0.1434,-0.1444,-0.144,-0.1462,-0.1471,-0.1451,-0.1515,-0.1539,-0.1567,-0.1653,-0.1621,-0.1543,-0.1394,-0.1326,-0.1172,-0.1287,-0.1132,-0.1183,-0.1233,-0.1168,-0.1266,-0.112,-0.1121,-0.1122,-0.1123,-0.1124,0,-0.136,-0.1348,-0.1339,-0.1331,-0.131,-0.1355,-0.1382,-0.1355,-0.1349,-0.1398,-0.1405,-0.1328,-0.1194,-0.1126,-0.0984,-0.0899,-0.0905,-0.0871,-0.0935,-0.0922,-0.1031,-0.0999,-0.0764,-0.0764,-0.0764,-0.0764,-0.0764,-0.0764,-0.1308,-0.1266,-0.1256,-0.1179,-0.117,-0.1105,-0.1094,-0.1085,-0.1093,-0.1059,-0.1037,-0.1059,-0.1019,-0.0992,-0.0838,-0.077,-0.0765,-0.073,-0.0767,-0.087,-0.0899,-0.0928,-0.0901,-0.065,-0.065,-0.061,-0.061,-0.061]},{"header":{"parameterUnit":"m.s-1","parameterCategory":2,"la1":30.2991,"la2":30.254,"lo1":-89.0895,"lo2":-89.0444,"dy":0.0017,"dx":0.0017,"nx":28,"ny":28,"refTime":"2024-02-23T09:00:00:Z","depth":"0","parameterNumber":3,"parameterNumberName":"V-component_of_CURRENTS"},"data":[0,0,0,0,0,0,0,0,0,0,0,0,0,0,0,0,0,0,0,0,0,0,0,0,0,0,0,0,0,0,0,0,0,0,0,0,0,0,0,0,0,0,0,0,0,0,0,0,0,0,0,0,0,0,0,0,0,0,-0.0334,-0.0334,0,-0.0321,-0.0321,-0.032,-0.0303,-0.0302,-0.0302,-0.0302,-0.024,-0.0239,-0.0237,0,0,0,0,0,0,0,0,0,0,0,0,0,-0.0338,-0.0338,-0.0334,-0.0334,-0.0334,-0.0321,-0.0321,-0.032,-0.0303,-0.0302,-0.0302,-0.0302,-0.0241,-0.0239,-0.0237,0,0,0,0,0,0,0,0,0,0,0,0,0,-0.033,-0.0338,-0.0334,-0.0325,-0.0324,-0.0321,-0.0321,-0.032,-0.0303,-0.0302,-0.0302,-0.0302,-0.0242,-0.0239,-0.0237,-0.0227,0,0,-0.023,-0.0229,0,0,0,0,0,0,0,0,-0.0331,-0.033,-0.0326,-0.0326,-0.0325,-0.0315,-0.03,-0.0287,-0.0303,-0.0309,-0.0302,-0.0302,-0.0262,-0.0258,-0.0254,-0.0224,-0.0222,-0.023,-0.0229,-0.0228,-0.0227,0,0,0,0,0,0,0,-0.0331,-0.033,-0.0327,-0.0326,-0.0325,-0.032,-0.0318,-0.0297,-0.0284,-0.0308,-0.0307,-0.0309,-0.0261,-0.0257,-0.0253,-0.0221,-0.023,-0.0228,-0.0227,-0.0226,-0.0189,-0.019,0,0,0,0,0,0,-0.0337,-0.0331,-0.0327,-0.0327,-0.0329,-0.032,-0.0318,-0.0317,-0.0286,-0.0282,-0.0309,-0.0308,-0.0261,-0.0255,-0.025,-0.0234,-0.0228,-0.0225,-0.0224,-0.0189,-0.019,-0.019,0,0,0,0,0,0,-0.0337,-0.0337,-0.0328,-0.033,-0.0329,-0.032,-0.0319,-0.0317,-0.0313,-0.0287,-0.0282,-0.0308,-0.026,-0.0253,-0.0241,-0.0231,-0.0224,-0.0222,-0.0189,-0.0189,-0.019,-0.0202,0,0,0,0,0,0,-0.0337,-0.0337,-0.0335,-0.033,-0.0329,-0.0326,-0.0319,-0.0317,-0.0315,-0.0314,-0.0285,-0.0279,-0.026,-0.0245,-0.0239,-0.0228,-0.0221,-0.0188,-0.0189,-0.019,-0.0201,-0.0203,-0.0204,0,0,0,0,0,-0.0337,-0.0331,-0.0335,-0.0335,-0.0328,-0.0326,-0.0325,-0.0317,-0.0316,-0.0313,-0.0302,-0.028,-0.0245,-0.0243,-0.0236,-0.0224,-0.0188,-0.0189,-0.019,-0.02,-0.0202,-0.0204,0,0,0,0,0,0,-0.0326,-0.0329,-0.0333,-0.0327,-0.033,-0.0324,-0.0318,-0.032,-0.031,-0.0306,-0.0285,-0.0279,-0.0262,-0.0248,-0.0247,-0.0219,-0.0212,-0.0212,-0.0223,-0.0225,-0.0226,-0.0231,-0.0219,0,0,0,0,0,-0.0327,-0.0324,-0.033,-0.0325,-0.0326,-0.0325,-0.0324,-0.0322,-0.0315,-0.031,-0.0294,-0.0277,-0.026,-0.0248,-0.0231,-0.0215,-0.0187,-0.0205,-0.0206,-0.0208,-0.0209,-0.0179,-0.0177,-0.0193,-0.0193,-0.0193,0,0,-0.032,-0.0322,-0.032,-0.0323,-0.0321,-0.0329,-0.0322,-0.032,-0.0325,-0.0304,-0.0298,-0.0281,-0.0259,-0.0243,-0.0234,-0.0229,-0.0183,-0.0209,-0.021,-0.021,-0.0179,-0.0178,-0.0176,-0.0194,-0.0193,-0.0193,0,0,-0.0316,-0.0308,-0.0315,-0.032,-0.0326,-0.0324,-0.0328,-0.0328,-0.0323,-0.0321,-0.0306,-0.0289,-0.0266,-0.0247,-0.0235,-0.0237,-0.0195,-0.0231,-0.0238,-0.0209,-0.0207,-0.0205,-0.0139,-0.0132,-0.023,-0.023,-0.023,0,-0.0312,-0.0324,-0.0315,-0.0328,-0.0337,-0.0327,-0.0344,-0.0334,-0.0331,-0.0329,-0.032,-0.029,-0.0267,-0.0247,-0.0247,-0.0238,-0.0207,-0.0229,-0.0209,-0.0207,-0.0205,-0.0139,-0.013,-0.0231,-0.0231,-0.023,-0.023,0,-0.0325,-0.0336,-0.0336,-0.0353,-0.0356,-0.0364,-0.0361,-0.0358,-0.0351,-0.0344,-0.0326,-0.0297,-0.028,-0.0266,-0.0254,-0.023,-0.0205,-0.0215,-0.0201,-0.0204,-0.0134,-0.0124,-0.0232,-0.0231,-0.0231,-0.0231,0,0,-0.0324,-0.0345,-0.0349,-0.0372,-0.0376,-0.0385,-0.0381,-0.0384,-0.0389,-0.0361,-0.0361,-0.0321,-0.0303,-0.0289,-0.0266,-0.0236,-0.0179,-0.022,-0.0218,-0.0149,-0.0085,-0.009,-0.008,-0.0188,-0.0187,-0.0186,-0.0032,0,-0.0346,-0.0384,-0.0384,-0.0418,-0.0442,-0.0431,-0.0436,-0.043,-0.0414,-0.0404,-0.0356,-0.0341,-0.0311,-0.0302,-0.0266,-0.0214,-0.016,-0.0218,-0.0098,-0.0094,-0.0095,-0.0072,-0.0069,0.0065,-0.0022,-0.0021,-0.002,0,-0.0373,-0.0398,-0.044,-0.0474,-0.0482,-0.0492,-0.0504,-0.0506,-0.0475,-0.0458,-0.0422,-0.0388,-0.0331,-0.0312,-0.0196,-0.0237,-0.0158,-0.0105,-0.0099,-0.0097,-0.0084,0.0047,0.0086,0.0194,-0.0005,-0.0006,-0.0007,0,-0.0401,-0.044,-0.0477,-0.049,-0.0517,-0.0529,-0.0536,-0.0523,-0.0527,-0.0488,-0.0478,-0.0409,-0.0373,-0.0281,-0.0167,-0.0181,-0.0032,-0.0039,0.0045,0.0048,0.0077,0.0079,0.0235,0.0057,0.0056,0.0056,0.0056,0,-0.0437,-0.0469,-0.0495,-0.052,-0.0563,-0.0565,-0.0595,-0.0587,-0.057,-0.0572,-0.0507,-0.0483,-0.0368,-0.0273,-0.0165,-0.0027,-0.0022,0.0057,0.0081,0.0075,0.0075,0.0188,0.0236,0.0062,0.0061,0.0059,0.0058,0,-0.0467,-0.0484,-0.0533,-0.0569,-0.058,-0.061,-0.0634,-0.0653,-0.0627,-0.0623,-0.0609,-0.0526,-0.0408,-0.0272,-0.0112,-0.0028,0.0177,0.0159,0.016,0.018,0.0321,0.0366,0.0547,0.0622,0.0271,0.0272,0.0272,0,-0.0485,-0.0512,-0.0567,-0.0598,-0.0616,-0.0655,-0.0683,-0.0679,-0.0689,-0.0648,-0.0643,-0.0536,-0.046,-0.0216,-0.0053,0.0148,0.0244,0.0272,0.023,0.0341,0.0411,0.0445,0.0497,0.0293,0.0294,0.0295,0.0295,0,-0.0516,-0.0533,-0.0575,-0.0639,-0.068,-0.0727,-0.0756,-0.0771,-0.0761,-0.0744,-0.0693,-0.0628,-0.041,-0.0211,0.0032,0.0154,0.0343,0.0287,0.0403,0.0441,0.049,0.0567,0.0207,0.03,0.03,0.0299,0.0299,0.0299,-0.0529,-0.0567,-0.0618,-0.0678,-0.0732,-0.0785,-0.081,-0.0831,-0.084,-0.0805,-0.0736,-0.0625,-0.0333,-0.0008,0.0131,0.0405,0.0404,0.0488,0.0543,0.0574,0.0612,0.0269,0.0369,0.0369,0.0369,0.0368,0.0368,0,-0.0538,-0.0587,-0.0651,-0.0726,-0.0787,-0.0805,-0.0849,-0.0859,-0.0863,-0.0817,-0.0752,-0.0457,-0.0169,0.012,0.0491,0.065,0.0706,0.0747,0.0812,0.0859,0.0564,0.0528,0.0664,0.0664,0.0664,0.0663,0.0663,0.0663,-0.0547,-0.0604,-0.0644,-0.0748,-0.0801,-0.0854,-0.0872,-0.0881,-0.0845,-0.0731,-0.0584,-0.046,-0.0046,0.0541,0.0887,0.0928,0.1091,0.1079,0.1179,0.0978,0.0958,0.094,0.0918,0.1133,0.1134,0.1456,0.1459,0.1462]}],[{"header":{"parameterUnit":"m.s-1","parameterCategory":2,"la1":30.2991,"la2":30.254,"lo1":-89.0895,"lo2":-89.0444,"dy":0.0017,"dx":0.0017,"nx":28,"ny":28,"refTime":"2024-02-23T09:00:00:Z","depth":"2","parameterNumber":2,"parameterNumberName":"U-component_of_CURRENTS"},"data":[0,0,0,0,0,0,0,0,0,0,0,0,0,0,0,0,0,0,0,0,0,0,0,0,0,0,0,0,0,0,0,0,0,0,0,0,0,0,0,0,0,0,0,0,0,0,0,0,0,0,0,0,0,0,0,0,0,0,-0.1873,-0.1873,0,-0.1915,-0.1915,-0.1916,-0.1931,-0.1931,-0.1931,-0.1931,-0.199,-0.1991,-0.1993,0,0,0,0,0,0,0,0,0,0,0,0,0,-0.1836,-0.1836,-0.1873,-0.1873,-0.1874,-0.1915,-0.1915,-0.1916,-0.1931,-0.1931,-0.1931,-0.1931,-0.1989,-0.1991,-0.1993,0,0,0,0,0,0,0,0,0,0,0,0,0,-0.1861,-0.1836,-0.1873,-0.1887,-0.1889,-0.1915,-0.1915,-0.1916,-0.1931,-0.1931,-0.1931,-0.1931,-0.1989,-0.1991,-0.1993,-0.201,0,0,-0.2001,-0.2002,0,0,0,0,0,0,0,0,-0.186,-0.1863,-0.1884,-0.1886,-0.1888,-0.1918,-0.1924,-0.1949,-0.1931,-0.1915,-0.1931,-0.1931,-0.1968,-0.1972,-0.1979,-0.2013,-0.2016,-0.2001,-0.2003,-0.2004,-0.2004,0,0,0,0,0,0,0,-0.1858,-0.1861,-0.1889,-0.1885,-0.1887,-0.1902,-0.1905,-0.1929,-0.1941,-0.1916,-0.1917,-0.1923,-0.1969,-0.1977,-0.1981,-0.2017,-0.2001,-0.2003,-0.2005,-0.2006,-0.2081,-0.2082,0,0,0,0,0,0,-0.1853,-0.1859,-0.1887,-0.189,-0.1874,-0.1902,-0.1906,-0.1908,-0.1941,-0.1945,-0.1923,-0.1924,-0.1972,-0.1978,-0.1983,-0.2014,-0.2004,-0.2006,-0.2007,-0.2081,-0.2081,-0.2082,0,0,0,0,0,0,-0.1852,-0.1855,-0.1886,-0.1876,-0.1881,-0.1903,-0.1906,-0.1909,-0.1922,-0.1946,-0.1951,-0.1933,-0.1973,-0.1979,-0.2015,-0.2016,-0.2007,-0.2009,-0.208,-0.2081,-0.2082,-0.2072,0,0,0,0,0,0,-0.1851,-0.1854,-0.1858,-0.1876,-0.1882,-0.1907,-0.1906,-0.191,-0.1926,-0.1927,-0.1956,-0.1961,-0.1973,-0.2012,-0.2018,-0.202,-0.2011,-0.2079,-0.208,-0.2081,-0.2071,-0.2072,-0.2073,0,0,0,0,0,-0.1849,-0.1852,-0.1857,-0.1861,-0.1884,-0.1907,-0.1912,-0.1927,-0.1927,-0.1937,-0.1959,-0.1961,-0.2022,-0.2015,-0.2022,-0.2024,-0.2079,-0.208,-0.2081,-0.2071,-0.2072,-0.2073,0,0,0,0,0,0,-0.1834,-0.1855,-0.1861,-0.1869,-0.189,-0.191,-0.192,-0.193,-0.1955,-0.1957,-0.1975,-0.1982,-0.2013,-0.2024,-0.2015,-0.2049,-0.2048,-0.205,-0.2037,-0.2039,-0.2039,-0.2024,-0.2013,0,0,0,0,0,-0.1833,-0.184,-0.1865,-0.187,-0.1881,-0.1901,-0.1913,-0.1925,-0.1948,-0.1958,-0.1979,-0.2001,-0.2022,-0.2035,-0.2058,-0.2081,-0.2083,-0.2086,-0.2086,-0.2087,-0.208,-0.2089,-0.209,-0.2086,-0.2086,-0.2086,0,0,-0.1824,-0.1839,-0.1841,-0.1867,-0.1882,-0.1902,-0.1908,-0.1928,-0.1943,-0.1962,-0.1989,-0.2009,-0.2031,-0.2056,-0.2069,-0.2065,-0.2089,-0.2088,-0.2088,-0.2081,-0.2091,-0.2091,-0.2091,-0.2087,-0.2087,-0.2086,0,0,-0.1813,-0.1828,-0.1833,-0.1856,-0.1886,-0.1903,-0.191,-0.1939,-0.1951,-0.1984,-0.1996,-0.2017,-0.2056,-0.2066,-0.2076,-0.2096,-0.2096,-0.2103,-0.2091,-0.2101,-0.2101,-0.2101,-0.2102,-0.2102,-0.21,-0.21,-0.21,0,-0.1804,-0.1813,-0.1839,-0.1858,-0.1872,-0.1903,-0.1915,-0.1938,-0.1975,-0.1984,-0.1993,-0.2038,-0.2057,-0.2076,-0.2079,-0.2095,-0.2099,-0.2085,-0.21,-0.21,-0.2101,-0.2102,-0.2102,-0.2099,-0.2099,-0.2099,-0.2099,0,-0.18,-0.1815,-0.1821,-0.1852,-0.1876,-0.1891,-0.1927,-0.1952,-0.1971,-0.1988,-0.2016,-0.2042,-0.2064,-0.2073,-0.2082,-0.2091,-0.2093,-0.2102,-0.2094,-0.21,-0.2101,-0.2102,-0.2099,-0.2099,-0.2099,-0.2099,0,0,-0.1754,-0.1806,-0.1807,-0.1826,-0.1873,-0.1892,-0.1922,-0.1952,-0.197,-0.2001,-0.2016,-0.2044,-0.2052,-0.2063,-0.2076,-0.2081,-0.2085,-0.2088,-0.2089,-0.2081,-0.21,-0.1978,-0.1967,-0.2097,-0.2097,-0.2097,-0.21,0,-0.1739,-0.1768,-0.1796,-0.1824,-0.1844,-0.1886,-0.1912,-0.1949,-0.1977,-0.2006,-0.2024,-0.2047,-0.205,-0.206,-0.2065,-0.2088,-0.2086,-0.2083,-0.2103,-0.2103,-0.1986,-0.1963,-0.1831,-0.181,-0.2101,-0.2101,-0.2101,0,-0.172,-0.1745,-0.1767,-0.1818,-0.1829,-0.1851,-0.1898,-0.1924,-0.1972,-0.1993,-0.2014,-0.2036,-0.2051,-0.2054,-0.2075,-0.2074,-0.208,-0.2091,-0.2092,-0.1978,-0.198,-0.1853,-0.18,-0.2101,-0.2101,-0.2101,-0.2101,0,-0.1676,-0.1722,-0.1736,-0.1755,-0.1819,-0.1833,-0.1862,-0.1914,-0.1934,-0.1979,-0.1998,-0.2026,-0.2039,-0.2055,-0.2062,-0.2077,-0.2077,-0.2106,-0.1999,-0.1991,-0.1879,-0.186,-0.2108,-0.2108,-0.2108,-0.2108,-0.2108,0,-0.1648,-0.166,-0.1719,-0.1731,-0.1748,-0.1805,-0.1823,-0.1862,-0.191,-0.1927,-0.1978,-0.1992,-0.2039,-0.2046,-0.2058,-0.2007,-0.207,-0.1979,-0.1974,-0.1871,-0.1852,-0.2108,-0.2108,-0.2108,-0.2108,-0.2108,-0.2108,0,-0.1595,-0.1635,-0.1653,-0.1712,-0.1727,-0.1737,-0.1788,-0.1808,-0.1863,-0.1887,-0.1899,-0.1965,-0.1967,-0.1988,-0.2013,-0.198,-0.1963,-0.193,-0.1792,-0.1768,-0.1882,-0.1882,-0.1824,-0.182,-0.1816,-0.1813,-0.181,0,-0.1569,-0.1574,-0.162,-0.1626,-0.1647,-0.1674,-0.1694,-0.1764,-0.1787,-0.1859,-0.1865,-0.1889,-0.1883,-0.1855,-0.1807,-0.1771,-0.1859,-0.1619,-0.161,-0.1846,-0.1849,-0.1855,-0.1859,-0.1476,-0.1471,-0.1467,-0.1463,0,-0.151,-0.1523,-0.1538,-0.1546,-0.1565,-0.1583,-0.1618,-0.1634,-0.1714,-0.1738,-0.1766,-0.1769,-0.1741,-0.1632,-0.1561,-0.153,-0.1611,-0.1527,-0.1814,-0.1549,-0.1512,-0.1517,-0.1534,-0.1425,-0.1429,-0.1432,-0.1434,-0.1436,-0.145,-0.1439,-0.1452,-0.1451,-0.1473,-0.1476,-0.1454,-0.1506,-0.1518,-0.1529,-0.1609,-0.1562,-0.1561,-0.1376,-0.1296,-0.1224,-0.1353,-0.1308,-0.1324,-0.1345,-0.1284,-0.1239,-0.1092,-0.1093,-0.1095,-0.1096,-0.1098,0,-0.137,-0.1363,-0.1356,-0.135,-0.133,-0.1371,-0.1388,-0.1354,-0.1329,-0.136,-0.1353,-0.1221,-0.113,-0.1127,-0.0961,-0.0917,-0.0942,-0.0872,-0.0927,-0.0964,-0.0997,-0.0922,-0.0633,-0.0631,-0.063,-0.0629,0,0,-0.1324,-0.1288,-0.128,-0.1208,-0.1199,-0.1135,-0.1119,-0.1091,-0.1085,-0.1035,-0.1005,-0.1075,-0.1103,-0.0881,-0.0817,-0.0702,-0.0828,-0.0655,-0.103,-0.1132,-0.1164,-0.1247,-0.1172,0,0,0,0,0]},{"header":{"parameterUnit":"m.s-1","parameterCategory":2,"la1":30.2991,"la2":30.254,"lo1":-89.0895,"lo2":-89.0444,"dy":0.0017,"dx":0.0017,"nx":28,"ny":28,"refTime":"2024-02-23T09:00:00:Z","depth":"2","parameterNumber":3,"parameterNumberName":"V-component_of_CURRENTS"},"data":[0,0,0,0,0,0,0,0,0,0,0,0,0,0,0,0,0,0,0,0,0,0,0,0,0,0,0,0,0,0,0,0,0,0,0,0,0,0,0,0,0,0,0,0,0,0,0,0,0,0,0,0,0,0,0,0,0,0,-0.0001,-0.0001,0,0.0027,0.0027,0.0027,0.0062,0.0063,0.0063,0.0063,0.0119,0.012,0.0121,0,0,0,0,0,0,0,0,0,0,0,0,0,-0.0023,-0.0022,-0.0001,-0.0001,-0.0,0.0027,0.0027,0.0028,0.0062,0.0063,0.0063,0.0064,0.0119,0.012,0.0121,0,0,0,0,0,0,0,0,0,0,0,0,0,-0.0005,-0.0022,-0.0001,0.0019,0.0021,0.0026,0.0027,0.0028,0.0062,0.0063,0.0063,0.0064,0.0118,0.012,0.0122,0.0119,0,0,0.0127,0.0127,0,0,0,0,0,0,0,0,-0.0006,-0.0004,0.0016,0.0018,0.002,0.004,0.004,0.0059,0.0062,0.0048,0.0063,0.0064,0.0094,0.0098,0.0103,0.0122,0.0124,0.0127,0.0128,0.0129,0.0129,0,0,0,0,0,0,0,-0.0007,-0.0005,0.0012,0.0016,0.0018,0.0027,0.003,0.0044,0.0069,0.0049,0.0051,0.0052,0.0096,0.0101,0.0105,0.0125,0.0127,0.0128,0.0129,0.013,0.0124,0.0123,0,0,0,0,0,0,-0.0014,-0.0006,0.0011,0.0012,0.0007,0.0026,0.003,0.0034,0.0068,0.0073,0.0051,0.0053,0.0098,0.0103,0.0107,0.0087,0.0129,0.013,0.0131,0.0126,0.0124,0.0123,0,0,0,0,0,0,-0.0015,-0.0013,0.001,0.0002,0.0006,0.0026,0.003,0.0034,0.0039,0.0069,0.0075,0.0051,0.0099,0.0105,0.0106,0.009,0.0131,0.0132,0.0127,0.0125,0.0124,0.0059,0,0,0,0,0,0,-0.0015,-0.0013,-0.0016,0.0002,0.0006,0.0001,0.003,0.0034,0.0037,0.004,0.0071,0.0077,0.01,0.0103,0.0108,0.0093,0.0134,0.0128,0.0126,0.0124,0.0062,0.0055,0.0049,0,0,0,0,0,-0.0016,-0.003,-0.0016,-0.0015,0.0002,0.0,0.0002,0.002,0.0036,0.0029,0.0048,0.0076,0.0093,0.0104,0.0109,0.0094,0.0129,0.0127,0.0124,0.0065,0.0057,0.0049,0,0,0,0,0,0,-0.0048,-0.0027,-0.0012,-0.002,-0.0014,0.0005,-0.0003,0.0014,0.0023,0.0026,0.0062,0.0068,0.0061,0.0084,0.0095,0.0085,0.0116,0.0114,0.0069,0.0061,0.0054,0.006,0.0135,0,0,0,0,0,-0.0054,-0.0054,-0.0037,-0.0044,-0.0043,-0.0022,-0.0021,-0.0009,0.0003,0.0008,0.003,0.0048,0.0054,0.0063,0.0071,0.0069,0.0109,0.0063,0.0056,0.005,0.0057,0.0079,0.0075,0.0115,0.0115,0.0115,0,0,-0.0068,-0.0058,-0.0058,-0.0051,-0.0043,-0.0052,-0.002,-0.0027,-0.0032,0.0012,0.0007,0.0022,0.0046,0.0038,0.0038,0.0058,0.0063,0.0047,0.0042,0.0053,0.0076,0.0072,0.0069,0.0113,0.0113,0.0114,0,0,-0.0101,-0.0089,-0.0099,-0.0099,-0.0094,-0.0082,-0.0086,-0.0071,-0.0064,-0.0068,-0.0042,-0.0035,-0.0021,-0.0007,0.0003,-0.0035,0.002,-0.0036,-0.0057,-0.0037,-0.004,-0.0041,0.002,0.0024,-0.0032,-0.0032,-0.0032,0,-0.0119,-0.0127,-0.0106,-0.0121,-0.0126,-0.0098,-0.0117,-0.011,-0.0096,-0.0091,-0.008,-0.006,-0.0042,-0.0041,-0.0055,-0.0049,-0.0014,-0.0028,-0.0045,-0.0046,-0.0047,0.0016,0.0022,-0.0036,-0.0035,-0.0035,-0.0035,0,-0.0156,-0.0166,-0.0179,-0.018,-0.0185,-0.02,-0.0187,-0.0188,-0.0173,-0.0157,-0.0155,-0.0131,-0.0112,-0.0113,-0.0094,-0.0095,-0.0059,-0.0061,-0.0022,-0.0054,0.0014,0.0021,-0.0041,-0.0039,-0.0038,-0.0038,0,0,-0.0182,-0.0199,-0.0203,-0.0217,-0.0218,-0.0228,-0.0239,-0.0237,-0.0242,-0.0223,-0.022,-0.021,-0.0181,-0.0168,-0.0144,-0.0124,-0.0098,-0.0095,-0.0093,-0.003,-0.0021,-0.0034,-0.0027,-0.0106,-0.0105,-0.0105,0.0036,0,-0.0215,-0.0256,-0.0251,-0.0292,-0.0314,-0.0297,-0.0312,-0.0306,-0.0291,-0.0282,-0.0245,-0.0237,-0.0207,-0.0199,-0.0175,-0.0128,-0.0086,-0.0133,-0.0002,0.0003,-0.0003,-0.0023,-0.0004,0.0118,0.0043,0.0044,0.0045,0,-0.0249,-0.0273,-0.0318,-0.0349,-0.0356,-0.0372,-0.0383,-0.0392,-0.0368,-0.0352,-0.0323,-0.029,-0.0252,-0.0228,-0.0135,-0.0168,-0.0092,-0.0045,-0.0039,-0.0023,-0.0,0.0134,0.0134,0.0057,0.0056,0.0055,0.0054,0,-0.0279,-0.0319,-0.0357,-0.0369,-0.0397,-0.041,-0.0418,-0.041,-0.0417,-0.0387,-0.038,-0.0327,-0.0298,-0.0219,-0.0119,-0.0126,-0.0008,-0.0004,0.007,0.0073,0.013,0.0135,0.0078,0.0077,0.0077,0.0077,0.0076,0,-0.0318,-0.0349,-0.0375,-0.04,-0.0444,-0.0446,-0.0478,-0.0474,-0.0464,-0.0471,-0.0414,-0.0401,-0.0299,-0.0222,-0.0124,-0.0008,-0.0004,0.0073,0.0097,0.0108,0.0109,0.0082,0.008,0.0082,0.0081,0.008,0.0079,0,-0.0348,-0.0365,-0.0413,-0.0449,-0.0461,-0.0492,-0.0517,-0.0539,-0.0519,-0.0524,-0.0514,-0.0446,-0.0351,-0.023,-0.0091,-0.0017,0.0095,0.0146,0.0169,0.0191,0.0177,0.0171,0.0245,0.0245,0.0246,0.0246,0.0246,0,-0.0367,-0.0394,-0.0447,-0.0479,-0.0496,-0.0536,-0.0565,-0.0564,-0.0578,-0.0554,-0.0555,-0.0468,-0.0403,-0.0199,-0.0046,0.0137,0.0133,0.025,0.0222,0.0173,0.0189,0.0182,0.0175,0.0301,0.0301,0.0302,0.0302,0,-0.04,-0.0416,-0.0457,-0.052,-0.056,-0.0607,-0.0638,-0.0655,-0.0651,-0.0642,-0.0608,-0.0554,-0.036,-0.0174,0.0043,0.0151,0.0209,0.0264,0.0216,0.0225,0.0228,0.0242,0.0234,0.0307,0.0307,0.0307,0.0306,0.0306,-0.0415,-0.0453,-0.0502,-0.0561,-0.0613,-0.0664,-0.0689,-0.071,-0.0723,-0.0694,-0.0645,-0.0535,-0.0357,-0.0049,0.0117,0.0278,0.0258,0.0315,0.0313,0.0311,0.0261,0.026,0.0342,0.0341,0.0341,0.0341,0.0341,0,-0.0429,-0.0477,-0.0538,-0.0611,-0.0669,-0.0685,-0.0729,-0.0736,-0.0742,-0.0691,-0.0637,-0.0432,-0.0216,-0.002,0.0239,0.0365,0.0378,0.0393,0.0393,0.0388,0.0383,0.0336,0.0438,0.0438,0.0439,0.0439,0,0,-0.0442,-0.0499,-0.0536,-0.0635,-0.0686,-0.0736,-0.0753,-0.0754,-0.0713,-0.0659,-0.0563,-0.0445,-0.0206,-0.0009,0.0173,0.0318,0.0318,0.0337,0.0249,0.0225,0.0218,0.0331,0.0251,0,0,0,0,0]}],[{"header":{"parameterUnit":"m.s-1","parameterCategory":2,"la1":30.2991,"la2":30.254,"lo1":-89.0895,"lo2":-89.0444,"dy":0.0017,"dx":0.0017,"nx":28,"ny":28,"refTime":"2024-02-23T09:00:00:Z","depth":"4","parameterNumber":2,"parameterNumberName":"U-component_of_CURRENTS"},"data":[0,0,0,0,0,0,0,0,0,0,0,0,0,0,0,0,0,0,0,0,0,0,0,0,0,0,0,0,0,0,0,0,0,0,0,0,0,0,0,0,0,0,0,0,0,0,0,0,0,0,0,0,0,0,0,0,0,0,-0.1264,-0.1265,0,-0.1312,-0.1312,-0.1312,-0.1326,-0.1326,-0.1325,-0.1325,-0.1403,-0.1405,-0.1407,0,0,0,0,0,0,0,0,0,0,0,0,0,-0.1191,-0.1192,-0.1264,-0.1265,-0.1266,-0.1312,-0.1312,-0.1313,-0.1326,-0.1326,-0.1325,-0.1325,-0.1402,-0.1404,-0.1407,0,0,0,0,0,0,0,0,0,0,0,0,0,-0.1227,-0.1192,-0.1264,-0.1279,-0.1281,-0.1311,-0.1312,-0.1313,-0.1326,-0.1326,-0.1325,-0.1325,-0.1401,-0.1404,-0.1407,-0.143,0,0,-0.1417,-0.1419,0,0,0,0,0,0,0,0,-0.1225,-0.1229,-0.1276,-0.1278,-0.128,-0.1314,-0.1315,-0.1354,-0.1326,-0.1307,-0.1325,-0.1325,-0.1377,-0.1382,-0.1388,-0.1434,-0.1437,-0.1417,-0.1419,-0.1421,-0.1422,0,0,0,0,0,0,0,-0.1222,-0.1227,-0.1281,-0.1277,-0.128,-0.1286,-0.129,-0.1322,-0.1341,-0.1308,-0.131,-0.1318,-0.1378,-0.1385,-0.139,-0.1438,-0.1417,-0.142,-0.1422,-0.1423,-0.1573,-0.1575,0,0,0,0,0,0,-0.122,-0.1225,-0.128,-0.1283,-0.1254,-0.1287,-0.1292,-0.1302,-0.134,-0.1346,-0.1318,-0.1319,-0.138,-0.1387,-0.1393,-0.1479,-0.1421,-0.1424,-0.1426,-0.1571,-0.1574,-0.1576,0,0,0,0,0,0,-0.1218,-0.1225,-0.1278,-0.1256,-0.1264,-0.1289,-0.1299,-0.1303,-0.1331,-0.1348,-0.1354,-0.1345,-0.138,-0.1389,-0.1444,-0.148,-0.1425,-0.1428,-0.1569,-0.1572,-0.1575,-0.1614,0,0,0,0,0,0,-0.1216,-0.1224,-0.1242,-0.1256,-0.1265,-0.1311,-0.13,-0.1304,-0.1336,-0.1337,-0.1372,-0.1378,-0.1381,-0.1439,-0.1447,-0.1483,-0.1431,-0.1566,-0.157,-0.1574,-0.161,-0.1618,-0.1624,0,0,0,0,0,-0.1213,-0.1238,-0.1243,-0.125,-0.1285,-0.1313,-0.1318,-0.1334,-0.1337,-0.1356,-0.1383,-0.1378,-0.1469,-0.1443,-0.1452,-0.149,-0.1565,-0.1569,-0.1574,-0.1606,-0.1616,-0.1624,0,0,0,0,0,0,-0.1226,-0.1242,-0.1248,-0.1279,-0.1302,-0.1316,-0.1342,-0.1349,-0.1384,-0.1395,-0.1403,-0.1412,-0.1475,-0.1481,-0.1452,-0.1546,-0.1517,-0.1524,-0.1539,-0.1548,-0.1555,-0.1529,-0.1433,0,0,0,0,0,-0.1235,-0.1255,-0.1272,-0.1302,-0.1314,-0.1332,-0.135,-0.1362,-0.1388,-0.1404,-0.1429,-0.1462,-0.1499,-0.1521,-0.1554,-0.1605,-0.1575,-0.1637,-0.1645,-0.165,-0.1637,-0.1633,-0.1637,-0.1591,-0.1591,-0.1591,0,0,-0.125,-0.1263,-0.1276,-0.1306,-0.1325,-0.135,-0.1343,-0.1381,-0.1409,-0.1409,-0.1467,-0.1493,-0.152,-0.1576,-0.1605,-0.1586,-0.1648,-0.1656,-0.1661,-0.1644,-0.1638,-0.1642,-0.1645,-0.1594,-0.1594,-0.1593,0,0,-0.1276,-0.1301,-0.1317,-0.134,-0.1373,-0.1386,-0.1402,-0.1432,-0.1454,-0.1509,-0.1518,-0.156,-0.1622,-0.1637,-0.1654,-0.1724,-0.169,-0.1749,-0.1761,-0.1758,-0.176,-0.1762,-0.172,-0.1717,-0.1749,-0.1749,-0.1749,0,-0.1292,-0.1312,-0.1331,-0.1355,-0.1374,-0.1404,-0.1427,-0.146,-0.1508,-0.1524,-0.1537,-0.1617,-0.1645,-0.1691,-0.1717,-0.1738,-0.1716,-0.1722,-0.1764,-0.1765,-0.1766,-0.1722,-0.1719,-0.1751,-0.1751,-0.1751,-0.175,0,-0.1314,-0.1344,-0.1363,-0.1395,-0.1424,-0.1455,-0.1493,-0.1534,-0.1567,-0.1586,-0.1648,-0.1684,-0.1718,-0.175,-0.1757,-0.1791,-0.1765,-0.1773,-0.1731,-0.1772,-0.1724,-0.172,-0.1755,-0.1754,-0.1753,-0.1752,0,0,-0.1299,-0.1361,-0.1368,-0.139,-0.1445,-0.1469,-0.1527,-0.1567,-0.1596,-0.1654,-0.1681,-0.1754,-0.176,-0.1779,-0.1799,-0.1803,-0.1799,-0.1794,-0.1793,-0.1732,-0.1761,-0.1665,-0.1651,-0.1816,-0.1816,-0.1816,-0.1718,0,-0.1303,-0.1349,-0.1378,-0.1431,-0.1455,-0.1502,-0.1548,-0.1597,-0.1639,-0.168,-0.1718,-0.1761,-0.1777,-0.1798,-0.1807,-0.181,-0.1793,-0.1823,-0.1746,-0.1742,-0.1638,-0.1646,-0.1816,-0.1715,-0.1714,-0.1713,-0.1713,0,-0.1295,-0.1329,-0.1375,-0.1439,-0.1453,-0.1496,-0.1558,-0.1601,-0.1663,-0.1694,-0.1732,-0.1759,-0.1788,-0.1797,-0.1787,-0.1806,-0.1779,-0.1771,-0.1767,-0.1656,-0.164,-0.1671,-0.1705,-0.1705,-0.1706,-0.1706,-0.1707,0,-0.1252,-0.1321,-0.1358,-0.1382,-0.1462,-0.1496,-0.1538,-0.1605,-0.1634,-0.1697,-0.1716,-0.1754,-0.1772,-0.1762,-0.1753,-0.177,-0.172,-0.1738,-0.1615,-0.1606,-0.1703,-0.1702,-0.1706,-0.1706,-0.1707,-0.1707,-0.1707,0,-0.1224,-0.1257,-0.1348,-0.137,-0.1413,-0.1478,-0.1522,-0.1572,-0.163,-0.1647,-0.1713,-0.1718,-0.1767,-0.1752,-0.1736,-0.165,-0.17,-0.1597,-0.1576,-0.1722,-0.1724,-0.1698,-0.1698,-0.1703,-0.1704,-0.1705,-0.1705,0,-0.1167,-0.1228,-0.1275,-0.1366,-0.1395,-0.1426,-0.1503,-0.1528,-0.1594,-0.1616,-0.1633,-0.1688,-0.1665,-0.168,-0.1656,-0.1609,-0.1554,-0.1508,-0.1631,-0.1622,-0.1439,-0.1443,-0.1346,-0.1342,-0.1338,-0.1335,-0.1333,0,-0.1138,-0.116,-0.1257,-0.1284,-0.1328,-0.1385,-0.1417,-0.1499,-0.1516,-0.1574,-0.1567,-0.1582,-0.1601,-0.1469,-0.1512,-0.1446,-0.144,-0.1388,-0.1439,-0.1413,-0.1403,-0.1412,-0.1421,-0.1327,-0.1326,-0.1325,-0.1324,0,-0.1077,-0.1124,-0.1163,-0.1215,-0.1261,-0.1296,-0.1346,-0.1346,-0.142,-0.1495,-0.1452,-0.1432,-0.1401,-0.1386,-0.1344,-0.1308,-0.1418,-0.1352,-0.1359,-0.1407,-0.1389,-0.1385,-0.1397,-0.1312,-0.1314,-0.1315,-0.1316,0,-0.1028,-0.1039,-0.1095,-0.1127,-0.1181,-0.1185,-0.1225,-0.1234,-0.1257,-0.133,-0.1307,-0.1326,-0.1376,-0.131,-0.1274,-0.1232,-0.1221,-0.1185,-0.1201,-0.1215,-0.1224,-0.1185,-0.1008,0,0,0,0,0,-0.0973,-0.0975,-0.1,-0.103,-0.1077,-0.1101,-0.1167,-0.1208,-0.1279,-0.1211,-0.1255,-0.1219,-0.1171,-0.1187,-0.1116,-0.1221,-0.1231,-0.1134,-0.12,-0.1244,-0.1258,-0.1285,0,0,0,0,0,0,-0.0934,-0.096,-0.0966,-0.0937,-0.0936,-0.0969,-0.1005,-0.1057,-0.1025,-0.1104,-0.1081,-0.1141,-0.1114,-0.1185,-0.1088,-0.1092,-0.1107,-0.1157,-0.1154,-0.1236,-0.1249,-0.126,-0.1293,0,0,0,0,0]},{"header":{"parameterUnit":"m.s-1","parameterCategory":2,"la1":30.2991,"la2":30.254,"lo1":-89.0895,"lo2":-89.0444,"dy":0.0017,"dx":0.0017,"nx":28,"ny":28,"refTime":"2024-02-23T09:00:00:Z","depth":"4","parameterNumber":3,"parameterNumberName":"V-component_of_CURRENTS"},"data":[0,0,0,0,0,0,0,0,0,0,0,0,0,0,0,0,0,0,0,0,0,0,0,0,0,0,0,0,0,0,0,0,0,0,0,0,0,0,0,0,0,0,0,0,0,0,0,0,0,0,0,0,0,0,0,0,0,0,0.0035,0.0035,0,0.0058,0.0059,0.0059,0.0096,0.0097,0.0097,0.0098,0.014,0.0141,0.0141,0,0,0,0,0,0,0,0,0,0,0,0,0,0.0026,0.0026,0.0035,0.0035,0.0035,0.0058,0.0059,0.0059,0.0096,0.0097,0.0097,0.0098,0.014,0.0141,0.0141,0,0,0,0,0,0,0,0,0,0,0,0,0,0.0038,0.0026,0.0035,0.0056,0.0058,0.0058,0.0059,0.0059,0.0096,0.0097,0.0098,0.0098,0.014,0.014,0.0141,0.0129,0,0,0.0144,0.0144,0,0,0,0,0,0,0,0,0.0038,0.0039,0.0052,0.0054,0.0057,0.0074,0.0071,0.0083,0.0096,0.0082,0.0098,0.0099,0.0119,0.0121,0.0125,0.0131,0.0133,0.0144,0.0145,0.0145,0.0145,0,0,0,0,0,0,0,0.0037,0.0038,0.0045,0.0053,0.0055,0.0065,0.0068,0.0073,0.0096,0.0084,0.0086,0.0087,0.012,0.0124,0.0126,0.0133,0.0144,0.0145,0.0145,0.0146,0.0128,0.0127,0,0,0,0,0,0,0.0031,0.0037,0.0044,0.0046,0.0048,0.0065,0.0068,0.0068,0.0096,0.01,0.0086,0.0089,0.0122,0.0125,0.0128,0.0107,0.0145,0.0146,0.0146,0.0129,0.0128,0.0127,0,0,0,0,0,0,0.003,0.0031,0.0043,0.0041,0.0043,0.0064,0.0064,0.0068,0.0075,0.0097,0.0103,0.0089,0.0123,0.0126,0.0127,0.0109,0.0146,0.0147,0.013,0.0129,0.0128,0.007,0,0,0,0,0,0,0.003,0.0031,0.0029,0.0041,0.0043,0.0038,0.0063,0.0068,0.0074,0.0077,0.0101,0.0106,0.0124,0.0125,0.0127,0.0111,0.0148,0.0132,0.013,0.0128,0.0073,0.0067,0.0061,0,0,0,0,0,0.003,0.0017,0.0028,0.0029,0.004,0.0037,0.0039,0.0057,0.0073,0.0068,0.0084,0.0105,0.0115,0.0125,0.0128,0.0111,0.0133,0.013,0.0128,0.0076,0.0068,0.0061,0,0,0,0,0,0,0.0007,0.002,0.0033,0.0025,0.003,0.0043,0.0038,0.0053,0.0062,0.0065,0.0093,0.0098,0.009,0.0107,0.0117,0.01,0.0127,0.0125,0.0086,0.0079,0.0073,0.0074,0.0148,0,0,0,0,0,0.0002,-0.0001,0.0012,0.0004,0.0005,0.0022,0.0024,0.0035,0.0044,0.005,0.0068,0.0081,0.0081,0.0086,0.0091,0.0083,0.0098,0.0074,0.0068,0.0063,0.0065,0.0071,0.0066,0.012,0.012,0.012,0,0,-0.001,-0.0004,-0.0006,-0.0001,0.0005,-0.0004,0.0025,0.002,0.0012,0.0051,0.0045,0.0059,0.0073,0.0062,0.0061,0.0077,0.0051,0.006,0.0056,0.0061,0.0068,0.0063,0.0058,0.0118,0.0119,0.0119,0,0,-0.0041,-0.0031,-0.0042,-0.0042,-0.0037,-0.0028,-0.0031,-0.0019,-0.0013,-0.002,0.0004,0.0008,0.0014,0.0022,0.0026,-0.001,0.0017,-0.001,-0.0036,-0.003,-0.0035,-0.0038,-0.0042,-0.0045,-0.0009,-0.001,-0.001,0,-0.0055,-0.0065,-0.0048,-0.0062,-0.0067,-0.0042,-0.0059,-0.0056,-0.0045,-0.0043,-0.003,-0.002,-0.0007,-0.0017,-0.0029,-0.0023,-0.0016,-0.001,-0.0038,-0.0041,-0.0043,-0.0046,-0.0049,-0.0013,-0.0012,-0.0012,-0.0012,0,-0.009,-0.0101,-0.0112,-0.0117,-0.0121,-0.0135,-0.0127,-0.0129,-0.0117,-0.0105,-0.0109,-0.009,-0.0079,-0.008,-0.0066,-0.0079,-0.0069,-0.0049,-0.0019,-0.0052,-0.0053,-0.0055,-0.0017,-0.0016,-0.0015,-0.0014,0,0,-0.0116,-0.0132,-0.0136,-0.0149,-0.015,-0.0161,-0.0177,-0.018,-0.0189,-0.0174,-0.018,-0.0176,-0.0149,-0.0143,-0.0122,-0.0116,-0.0134,-0.0091,-0.009,-0.0095,-0.013,-0.0076,-0.0073,-0.0117,-0.0118,-0.0118,-0.013,0,-0.0146,-0.0184,-0.0181,-0.0219,-0.0238,-0.0227,-0.0246,-0.0246,-0.0237,-0.0236,-0.021,-0.0208,-0.0179,-0.0174,-0.0164,-0.0135,-0.0139,-0.0133,-0.0098,-0.0097,-0.0043,-0.0073,-0.0119,-0.0131,-0.0131,-0.0132,-0.0132,0,-0.0176,-0.0198,-0.024,-0.027,-0.0277,-0.0296,-0.0313,-0.0326,-0.0316,-0.0306,-0.0287,-0.0261,-0.0245,-0.0218,-0.0189,-0.0185,-0.0167,-0.0147,-0.0146,-0.0073,-0.0045,-0.0087,-0.0135,-0.0134,-0.0134,-0.0134,-0.0134,0,-0.0199,-0.0238,-0.0273,-0.0284,-0.0314,-0.0331,-0.0343,-0.0345,-0.0357,-0.0342,-0.0341,-0.0311,-0.0295,-0.0264,-0.021,-0.0204,-0.0175,-0.0163,-0.0104,-0.0101,-0.012,-0.0116,-0.0159,-0.0159,-0.0158,-0.0158,-0.0158,0,-0.023,-0.0259,-0.0289,-0.031,-0.0356,-0.0362,-0.0399,-0.0401,-0.0403,-0.0415,-0.0375,-0.0372,-0.0305,-0.0272,-0.0229,-0.0163,-0.0191,-0.0113,-0.0098,-0.0147,-0.0146,-0.0122,-0.0118,-0.0159,-0.0159,-0.0159,-0.0159,0,-0.025,-0.0269,-0.0313,-0.0353,-0.0368,-0.04,-0.0435,-0.0458,-0.0452,-0.0466,-0.0462,-0.0419,-0.0361,-0.0294,-0.0237,-0.0184,-0.0131,-0.0108,-0.0173,-0.016,-0.0063,-0.0061,-0.0051,-0.0049,-0.0048,-0.0046,-0.0045,0,-0.0262,-0.0286,-0.0343,-0.0375,-0.0396,-0.0439,-0.047,-0.048,-0.0495,-0.0494,-0.0499,-0.0448,-0.0407,-0.0289,-0.0212,-0.0117,-0.0099,-0.0082,-0.0065,-0.0064,-0.0051,-0.0052,-0.0053,-0.0043,-0.0042,-0.0042,-0.0042,0,-0.0284,-0.0303,-0.0341,-0.0404,-0.0448,-0.0495,-0.0531,-0.0543,-0.0551,-0.0551,-0.0519,-0.045,-0.0376,-0.0273,-0.0187,-0.0124,-0.0092,-0.0065,-0.0068,-0.0053,-0.0054,-0.0042,-0.0045,-0.0036,-0.0037,-0.0037,-0.0038,0,-0.0295,-0.0327,-0.0375,-0.0431,-0.0488,-0.0532,-0.055,-0.0561,-0.0571,-0.0554,-0.0546,-0.0464,-0.0416,-0.0277,-0.0207,-0.0118,-0.0098,-0.008,-0.0082,-0.0087,-0.0075,-0.0081,-0.0063,0,0,0,0,0,-0.0301,-0.0342,-0.0398,-0.0462,-0.0517,-0.0546,-0.0585,-0.0593,-0.0597,-0.0574,-0.0554,-0.0481,-0.0344,-0.029,-0.0191,-0.0177,-0.0086,-0.0059,-0.0068,-0.0006,-0.0012,0.0016,0,0,0,0,0,0,-0.0311,-0.0363,-0.0398,-0.0471,-0.0514,-0.0573,-0.0596,-0.0599,-0.0576,-0.0565,-0.0491,-0.0454,-0.032,-0.0398,-0.0189,-0.0163,-0.0154,0.0003,0.0006,-0.0002,-0.0008,-0.0013,0.0014,0,0,0,0,0]}]]